Terminal Aerodrome Forecast
Issued by NWS

Home | Current Version | Previous Version | Text Only | Print | Product List | Glossary On
Versions: 1 2 3 4 5 6 7 8 9 10 11 12 13
719
FTUS45 KRIW 042158 AAA
TAFLND
TAF AMD
KLND 042158Z 0422/0518 31015G25KT P6SM SCT100 WS020/27045KT
     FM050200 25018G28KT P6SM BKN100 WS015/25050KT
     FM051000 29015G25KT P6SM BKN050 WS018/26045KT
     FM051500 31012KT P6SM SCT070 WS015/27035KT=

USA.gov is the U.S. government's official web portal to all federal, state and local government web resources and services.